GW0821 Weather Reports


time (UTC)temp
F
wind
direction
speed
knots
gust
knots
rain 1hr
in
rain 24hr
in
rain mn
in
humidity
%
barometer
mb
20260904234607 70 0 0.0 0.0 0.00 0.00 0.00 79 1021.0
20260904233100 70 0 0.0 0.0 0.00 0.00 0.00 78 1021.1
20260904231556 71 0 0.0 0.0 0.00 0.00 0.00 79 1021.1
20260904230051 71 0 0.0 0.0 0.00 0.00 0.00 79 1021.0
20260904224550 72 0 0.0 0.0 0.00 0.00 0.00 77 1021.0
20260904223051 72 0 0.0 0.0 0.00 0.00 0.00 78 1021.2
20260904221555 72 0 0.0 0.0 0.00 0.00 0.00 77 1021.0
20260904220107 73 0 0.0 0.9 0.00 0.00 0.00 77 1021.0
20260904214549 73 0 0.0 0.0 0.00 0.00 0.00 76 1020.9
20260904213052 74 0 0.0 0.0 0.00 0.00 0.00 77 1020.9
20260904211555 75 0 0.0 0.0 0.00 0.00 0.00 78 1020.8
20260904210057 75 0 0.0 0.0 0.00 0.00 0.00 78 1020.7
20260904204553 76 0 0.0 0.0 0.00 0.00 0.00 77 1020.8
20260904203052 76 0 0.0 0.0 0.00 0.00 0.00 75 1020.8
20260904201558 77 0 0.0 0.0 0.00 0.00 0.00 76 1020.7
20260904200124 78 0 0.0 0.0 0.00 0.00 0.00 75 1020.6
20260904194633 79 0 0.0 1.7 0.00 0.00 0.00 75 1020.6
20260904193052 79 0 0.0 1.7 0.00 0.00 0.00 74 1020.6
20260904191552 80 0 0.0 0.9 0.00 0.00 0.00 75 1020.4
20260904190052 81 275 0.0 1.7 0.00 0.00 0.00 74 1020.1
20260904184604 82 0 0.0 2.6 0.00 0.00 0.00 73 1020.0
20260904183050 83 122 0.0 4.3 0.00 0.00 0.00 71 1019.8
20260904181553 83 144 1.7 6.1 0.00 0.00 0.00 70 1019.6
20260904180054 84 142 2.6 7.0 0.00 0.00 0.00 67 1019.4
20260904174550 86 151 1.7 5.2 0.00 0.00 0.00 64 1019.3
20260904173101 87 145 0.9 5.2 0.00 0.00 0.00 61 1019.1
20260904171551 89 154 0.9 5.2 0.00 0.00 0.00 58 1018.9
20260904170054 90 165 3.5 7.8 0.00 0.00 0.00 56 1018.7
20260904164552 91 172 1.7 7.8 0.00 0.00 0.00 53 1018.8
20260904163046 92 223 2.6 7.0 0.00 0.00 0.00 50 1018.8
20260904161554 93 128 3.5 10.4 0.00 0.00 0.00 47 1018.7
20260904160054 93 220 1.7 7.8 0.00 0.00 0.00 48 1018.7
20260904154550 93 226 3.5 7.0 0.00 0.00 0.00 47 1018.8
20260904153057 93 222 2.6 7.8 0.00 0.00 0.00 50 1018.6
20260904151601 93 190 3.5 7.8 0.00 0.00 0.00 51 1018.6
20260904150050 92 224 4.3 13.0 0.00 0.00 0.00 52 1018.6
20260904144600 92 148 3.5 10.4 0.00 0.00 0.00 52 1018.7
20260904143056 93 226 4.3 11.3 0.00 0.00 0.00 52 1018.7
20260904141617 93 122 4.3 10.4 0.00 0.00 0.00 52 1018.8
20260904140109 94 190 5.2 9.6 0.00 0.00 0.00 50 1018.8
20260904134620 95 212 4.3 12.2 0.00 0.00 0.00 47 1018.6
20260904133109 95 144 5.2 9.6 0.00 0.00 0.00 46 1018.7
20260904131607 94 222 2.6 10.4 0.00 0.00 0.00 45 1018.6
20260904130050 94 146 3.5 7.8 0.00 0.00 0.00 45 1018.7
20260904124559 94 187 3.5 13.0 0.00 0.00 0.00 44 1018.8
20260904123053 93 131 3.5 7.8 0.00 0.00 0.00 43 1018.9
20260904121549 93 205 3.5 7.8 0.00 0.00 0.00 42 1019.1
20260904120059 92 205 3.5 4.3 0.00 0.00 0.00 44 1019.3
20260904104552 90 200 2.6 7.8 0.00 0.00 0.00 48 1019.7
20260904103053 89 210 2.6 11.3 0.00 0.00 0.00 49 1019.8
20260904101553 89 125 3.5 5.2 0.00 0.00 0.00 49 1019.9
20260904100105 88 152 3.5 7.0 0.00 0.00 0.00 50 1020.0
20260904094552 88 217 3.5 7.0 0.00 0.00 0.00 51 1020.0
20260904093055 87 213 1.7 4.3 0.00 0.00 0.00 53 1020.1
20260904091550 84 147 0.0 1.7 0.00 0.00 0.00 58 1020.3
20260904090057 83 149 0.0 3.5 0.00 0.00 0.00 62 1020.1
20260904084554 81 53 1.7 6.1 0.00 0.00 0.00 64 1020.2
20260904083105 79 47 1.7 7.8 0.00 0.00 0.00 66 1020.1
20260904081550 77 101 1.7 9.6 0.00 0.00 0.00 69 1020.1
20260904080057 76 70 3.5 8.7 0.00 0.00 0.00 71 1020.1
20260904074553 75 68 2.6 7.0 0.00 0.00 0.00 75 1020.3
20260904073053 73 18 3.5 5.2 0.00 0.00 0.00 78 1020.4
20260904071552 72 64 3.5 7.8 0.00 0.00 0.00 81 1020.4
20260904070059 70 128 3.5 7.0 0.00 0.00 0.00 83 1020.5
20260904064614 68 0 0.0 0.0 0.00 0.00 0.00 85 1020.4
20260904063050 66 0 0.0 0.0 0.00 0.00 0.00 88 1020.6
20260904061551 65 0 0.0 0.0 0.00 0.00 0.00 89 1020.6
20260904060057 64 0 0.0 0.0 0.00 0.00 0.00 89 1020.6
20260904054554 64 0 0.0 0.0 0.00 0.00 0.00 90 1020.5
20260904053057 64 0 0.0 0.0 0.00 0.00 0.00 90 1020.5
20260904051550 64 0 0.0 0.0 0.00 0.00 0.00 89 1020.5
20260904050112 65 0 0.0 0.0 0.00 0.00 0.00 90 1020.7
20260904044556 65 0 0.0 0.0 0.00 0.00 0.00 89 1020.7
20260904043102 65 0 0.0 0.0 0.00 0.00 0.00 89 1020.8
20260904041606 65 0 0.0 0.0 0.00 0.00 0.00 89 1020.7
20260904040051 65 0 0.0 0.0 0.00 0.00 0.00 89 1020.7
20260904034611 65 0 0.0 0.0 0.00 0.00 0.00 89 1020.9
20260904033059 66 0 0.0 0.0 0.00 0.00 0.00 89 1021.0
20260904031554 66 0 0.0 0.0 0.00 0.00 0.00 89 1021.2
20260904030103 66 0 0.0 0.0 0.00 0.00 0.00 89 1021.2
20260904024550 66 0 0.0 0.0 0.00 0.00 0.00 89 1021.3
20260904023058 66 0 0.0 0.0 0.00 0.00 0.00 88 1021.4
20260904021603 67 0 0.0 0.0 0.00 0.00 0.00 88 1021.4
20260904020051 67 0 0.0 0.0 0.00 0.00 0.00 89 1021.4
20260904014553 67 0 0.0 0.0 0.00 0.00 0.00 89 1021.4
20260904013057 67 0 0.0 0.0 0.00 0.00 0.00 88 1021.5
20260904011551 68 0 0.0 0.0 0.00 0.00 0.00 87 1021.6
20260904010049 68 0 0.0 0.0 0.00 0.00 0.00 87 1021.7
20260904004555 68 0 0.0 0.0 0.00 0.00 0.00 88 1021.9
20260904003051 68 0 0.0 0.0 0.00 0.00 0.00 87 1021.9
20260904001546 69 0 0.0 0.0 0.00 0.00 0.00 87 1022.1
20260904000047 69 0 0.0 0.0 0.00 0.00 0.00 87 1022.2